Regional Weather Roundup
Issued by NWS

Home | Current Version | Previous Version | Text Only | Print | Product List | Glossary Off
Versions: 1 2 3 4 5 6 7 8 9 10 11 12 13 14 15 16 17 18 19 20 21 22 23 24 25 26 27 28 29 30 31 32 33 34 35 36 37 38 39 40 41 42 43 44 45 46 47 48 49 50

000
ASUS45 KTFX 261604
RWRMT
MONTANA HOURLY WEATHER ROUNDUP
NATIONAL WEATHER SERVICE GREAT FALLS MT
904 AM MST FRI DEC 26 2014

NOTE: "FAIR" INDICATES FEW OR NO CLOUDS BELOW 12000 FEET WITH NO
SIGNIFICANT WEATHER AND/OR OBSTRUCTIONS TO VISIBILITY.

* THESE STATIONS ARE NOT UNDER NWS QUALITY CONTROL. THEY DO NOT
   REPORT WEATHER SUCH AS PRECIPITATION OR FOG.

MTZ001>007-043-261700-
WEST OF THE DIVIDE
CITY           SKY/WX    TMP DP  RH WIND       PRES   REMARKS
KALISPELL      LGT SNOW  23  21  92 CALM      30.12R
MISSOULA       CLOUDY    21  19  92 NE5       30.12R WCI  14
BUTTE          CLOUDY    16  10  77 CALM      30.01R
MULLAN PASS    HAZE      19  12  74 VRB3      29.98R
* ESSEX        N/A       22  19  88 S4         N/A
* LINCOLN      N/A       20  16  84 NE4        N/A
* LOOKOUT PASS N/A       22  19  88 N2         N/A
* POLSON       N/A       23  22  96 N/A        N/A
* RONAN APT    PTCLDY    27  25  92 N/A        N/A
* SEELEY LAKE  N/A       19  17  92 N/A        N/A
* THOMP F APT  SUNNY     15   4  61 N6G13      N/A   WCI   6
$$

MTZ008-052>055-261700-
SOUTHWEST MONTANA
CITY           SKY/WX    TMP DP  RH WIND       PRES   REMARKS
BOZEMAN        LGT SNOW  16  12  84 CALM      30.05R
DILLON         CLOUDY    16   9  74 S7        30.00S WCI   6
* W YELLOWSTON PTCLDY   -21 -29  65 N/A        N/A
* THREE FORKS  CLOUDY    16 -35   8 N/A        N/A
* BOULDER HILL N/A       16   9  74 S2         N/A
* MONIDA PASS  N/A       12   7  80 NW6        N/A   WCI   2
* RAYNOLDS PAS N/A        5   3  91 N/A        N/A
* WHITEHALL    N/A       17  12  81 NW4        N/A
* WISE RIVER   N/A       11   7  84 E1         N/A
$$

MTZ009>010-012-014-046-048-049-054-261700-
EAST SLOPES AND CENTRAL MONTANA
CITY           SKY/WX    TMP DP  RH WIND       PRES   REMARKS
CUT BANK       FOG       19  16  88 NW8       30.09R WCI   9
GREAT FALLS    LGT SNOW  19  18  96 N12       30.08R VSB 3    WCI   6
HELENA         LGT SNOW  21  18  88 W3        30.08R VSB 2 1/2
* DEARBORN     N/A       21  20  96 N/A        N/A
* EAST GLACIER N/A       14  10  84 S4         N/A
* MONARCH      N/A       16  12  84 N/A        N/A
* PENDROY      N/A       14  13  96 NW7        N/A   WCI   4
* ROGERS PASS  N/A       17  14  88 S1         N/A
* SWEET GRASS  N/A       16  15  96 VRB15      N/A   WCI   1
$$

MTZ011-013-016-021-035-040-045-047-050-051-261700-
NORTH CENTRAL MONTANA
CITY           SKY/WX    TMP DP  RH WIND       PRES   REMARKS
HAVRE          LGT SNOW  21  19  92 W6        30.09R VSB 1 1/2 WCI  13
LEWISTOWN      CLOUDY    21  16  81 SW5       30.01R WCI  14
* N BAR RANCH  CLOUDY    21  16  81 NW8       29.98R WCI  11
* CHESTER      N/A       18  15  88 W1         N/A
* DENTON       N/A       21  17  84 W14        N/A   WCI   8
* GEYSER       N/A       20  18  92 W10G16     N/A   WCI   9
* JUDITH GAP   N/A       18  18 100 N/A        N/A
* LOMA         N/A       21  17  84 W7         N/A   WCI  12
$$

MTZ017>020-022>027-061-062-261700-
NORTHEAST MONTANA
CITY           SKY/WX    TMP DP  RH WIND       PRES   REMARKS
GLASGOW        CLOUDY    19  14  81 E13       30.08R WCI   6
GLENDIVE       CLOUDY    16  12  84 NE5       30.13R WCI   8
JORDAN         PTSUNNY   21  19  92 CALM      30.06R
SIDNEY         CLOUDY    14  10  84 E5        30.19R VSB 3    WCI   6
WOLF POINT     CLOUDY    16  10  77 E9        30.15R WCI   5
* BEAVER HILL  N/A       19  13  77 S2         N/A
* CIRCLE       N/A       21  18  88 N/A        N/A
* LINDSAY DVD  N/A       21  17  84 SW2        N/A
* NAVAJO       N/A        9   6  87 S2         N/A
* SACO         N/A       19  16  88 E7         N/A   WCI  10
$$

MTZ028>042-056>058-261700-
SOUTHCENTRAL AND SOUTHEAST MONTANA
CITY           SKY/WX    TMP DP  RH WIND       PRES   REMARKS
BAKER          CLOUDY    21  14  74 W6        30.11R WCI  13
BILLINGS       PTCLDY     9   7  91 SW15      30.04R WCI  -8
LIVINGSTON     CLOUDY    12   9  88 NW14      30.02R WCI  -4
MILES CITY     SUNNY     19  16  88 SE8       30.10R WCI   9
* LAUREL APT   PTSUNNY    3  -4  72 SW5        N/A   WCI  -7
* ROUNDUP APT  PTCLDY     3  -4  72 SW5        N/A   WCI  -7
* ALZADA       N/A       19  13  77 SW2        N/A
* HYSHAM       N/A       15  11  84 W9         N/A   WCI   3
* REED POINT   N/A        4   1  87 W4         N/A
* ROSCOE HILL  N/A       17  -1  45 SW9G16     N/A   WCI   6
$$

REGIONAL REPORTS...DAKOTAS
CITY           SKY/WX    TMP DP  RH WIND       PRES   REMARKS
WILLISTON      CLOUDY    14   9  80 SE3       30.17R
DICKINSON      CLOUDY    19  10  68 W6        30.10R WCI  11
BEACH          CLOUDY    18  16  92 SE5       30.12R WCI  11
CROSBY         HVY SNOW   3   1  91 N6        30.20R VSB M1/4 WCI  -8
WATFORD CITY   LGT SNOW  14  10  84 NW6       30.15R WCI   5
BISMARCK       LGT SNOW  14  10  84 N7        30.21R VSB 3    WCI   4
GRAND FORKS    LGT SNOW  21  18  88 NW9       30.18R VSB 3    WCI  11
FARGO          CLOUDY    25  19  78 N9        30.17R WCI  16
BUFFALO SD     PTCLDY    19  14  81 N6        30.04R WCI  11
RAPID CITY     CLOUDY    19  16  88 N9        30.08S WCI   8
$$

REGIONAL REPORTS...WYOMING/IDAHO/WASHINGTON
CITY           SKY/WX    TMP DP  RH WIND       PRES   REMARKS
GILLETTE       CLOUDY    18  12  77 CALM      30.03R
SHERIDAN       PTCLDY     9   3  76 S3        30.04R
CODY           CLOUDY    16  16 100 SW3       29.98S
YELLOWSTONE LA PTCLDY    -9 -15  74 CALM      29.90R
SALMON         CLOUDY    19  18  96 CALM      30.08R
MULLAN PASS    HAZE      19  12  74 VRB3      29.98S
SAND POINT     SUNNY     21  21 100 CALM      30.20R
SPOKANE        FOG       19  18  96 CALM      30.19R

$$



USA.gov is the U.S. government's official web portal to all federal, state and local government web resources and services.